Current Weather Conditions: station ENDR

sailwx.info

See reports from other nearby stations

no recent reports received from weather station ID ENDR

Tides Pressure Air temp Water temp Dewpoint Dewpoint depression Visibility Wind speed Wind direction Waves Ship positions
date/time (UTC)wind fromknots sea level pressurealtimeterstation pressurevisibilityair tempwater tempwave heightnotes
2017-May-25 03:50 260 21 8.0
2017-May-25 03:20 260 27 8.0
2017-May-25 02:50 260 25 8.0
2017-May-25 02:20 250 26 8.0
2017-May-25 01:50 250 25 8.0
2017-May-25 01:20 250 25 8.0
2017-May-25 00:50 250 27 8.0
2017-May-25 00:20 250 27 8.0
2017-May-24 23:50 240 25 8.0
2017-May-24 23:20 230 26 8.0
2017-May-24 22:50 230 27 8.0
2017-May-24 22:20 240 28 8.0
2017-May-24 21:50 240 27 8.0
2017-May-24 21:20 240 27 8.0
2017-May-24 20:50 250 25 8.0
2017-May-24 20:20 240 24 8.0
2017-May-24 19:50 240 24 8.0
2017-May-24 19:20 240 24 8.0
2017-May-24 18:50 240 22 8.0
2017-May-24 18:20 240 21 8.0
2017-May-24 17:50 240 20 8.0
2017-May-24 17:20 240 20 9.0
2017-May-24 16:50 240 19 9.0
2017-May-24 16:20 240 19 9.0
2017-May-24 15:50 230 14 9.0
2017-May-24 15:10 240 14 5.4 9.0
2017-May-24 14:50 240 14 9.0
2017-May-24 14:20 240 18 9.0
2017-May-24 13:50 250 19 9.0
2017-May-24 13:20 240 19 8.0
2017-May-24 12:50 9.0
2017-May-24 12:20 250 18 9.0
2017-May-24 11:50 240 13 9.0
2017-May-24 11:20 230 8 9.0
2017-May-24 10:50 150 4 8.0
2017-May-24 10:20 130 8 7.0
2017-May-24 09:50 120 9 7.0
2017-May-24 09:10 5.4 7.0 Rain.
2017-May-24 08:50 130 5 7.0
2017-May-24 08:20 140 4 7.0
2017-May-24 07:50 120 6 7.0
2017-May-24 07:20 110 6 7.0
2017-May-24 06:50 7.0
2017-May-24 06:10 5.4 7.0 Light rain.
2017-May-24 05:50 190 1 7.0
2017-May-24 05:20 8.0
2017-May-24 04:50 040 1 8.0
2017-May-24 04:20 050 1 8.0
2017-May-24 03:50 040 4 8.0
2017-May-24 03:20 030 5 8.0
2017-May-24 02:50 030 5 8.0
2017-May-24 01:50 020 6 8.0
2017-May-24 01:20 010 6 8.0
2017-May-24 00:50 010 7 8.0
2017-May-23 23:20 010 7 8.0
2017-May-23 22:50 020 7 8.0
2017-May-23 22:20 030 8 8.0
2017-May-23 21:50 030 7 8.0
2017-May-23 21:20 030 7 8.0
2017-May-23 20:50 030 7 9.0
2017-May-23 20:20 030 9 9.0
2017-May-23 19:50 10.0
2017-May-23 19:20 040 8 11.0
2017-May-23 18:50 050 7 11.0
2017-May-23 18:20 040 7 11.0
2017-May-23 17:50 050 6 11.0
2017-May-23 17:20 050 7 11.0
2017-May-23 16:50 060 7 11.0
2017-May-23 16:20 050 9 11.0
2017-May-23 15:50 050 9 11.0
2017-May-23 15:10 050 6 5.411.0
2017-May-23 14:20 050 6 12.0
2017-May-23 13:50 060 5 12.0
2017-May-23 13:20 060 5 11.0
2017-May-23 12:50 050 4 10.0
2017-May-23 12:20 050 2 9.0
2017-May-23 11:50 100 2 9.0
2017-May-23 11:20 090 4 9.0
2017-May-23 10:50 130 6 8.0
2017-May-23 10:20 120 6 8.0
2017-May-23 09:50 090 2 9.0
2017-May-23 09:20 110 5 9.0
2017-May-23 08:50 100 5 9.0
2017-May-23 08:20 9.0
2017-May-23 07:50 9.0
2017-May-23 07:20 100 4 9.0
2017-May-23 06:50 090 2 9.0
2017-May-23 06:10 080 2 5.4 9.0
2017-May-23 05:50 060 1 9.0
2017-May-23 05:20 030 0 8.0